www.pogodaiklimat.ru

Погода и климат >> Архив погоды >> Индия >> Balasore


ПОГОДА в Balasore

  • Прогноз погоды в Balasore
  • Монитор погоды в Balasore
  • Климат города

АРХИВ ПОГОДЫ в Balasore

Время (UTC), дата Ветер
(напр.,м/с)
 
Видим.   Явления Облачность Т
(С)
Тd
(С)
f
(%)
Тe
(С)
Тes
(С)
Комфортность P
(гПа)
Po
(гПа)
Тmin
(С)
Tmax
(С)
R
(мм)
R24
(мм)
S
(см)
21 11.08 штиль 0 4000 м 9/6 600 м
[Sc diur, vesp Ac trans]
+28.8 +25.7 83 +43 +43 опасность
перегрева
997.3 997.0
00 12.08 штиль 0 4000 м 6/4 600 м
[Sc diur, vesp Ac trans]
+27.8 +25.8 89 +41 +41 опасность
перегрева
997.0 997.0
03 12.08 штиль 0 4000 м 6/5 600 м
[Sc diur, vesp Ac trans]
+29.8 +27.0 85 +47 +53 опасность
перегрева
997.0 997.0 +25.6
06 12.08 С 1 4000 м 6/5 600 м
[Sc diur, vesp Ac trans]
+33.0 +26.6 69 +50 +61 опасность
перегрева
997.1 997.0
09 12.08 штиль 0 4000 м 9/6 540 м
[Sc diur, vesp Ac trans]
+31.0 +26.8 78 +48 +52 опасность
перегрева
995.8 996.0
12 12.08 С 1 2000 м в посл. час дождь 10/8 540 м
[Sc diur, vesp As op]
+28.4 +27.0 92 +45 +45 опасность
перегрева
995.2 995.0 +33.5 14
15 12.08 штиль 0 4000 м 9/6 540 м
[Sc diur, vesp Ac trans]
+28.0 +26.3 91 +43 +43 опасность
перегрева
997.4 997.0 14
18 12.08 штиль 0 4000 м 8/5 540 м
[Sc Ac trans]
+27.0 +25.6 92 +40 +40 очень
душно
997.6 998.0 14
21 12.08 штиль 0 4000 м 8/5 540 м
[Sc Ac trans]
+26.0 +24.6 92 +37 +37 очень
душно
996.6 997.0 14
00 13.08 ЮЗ 1 4000 м 8/4 540 м
[Sc Ac trans]
+27.0 +26.2 95 +41 +41 опасность
перегрева
996.1 996.0 14
03 13.08 С 1 4000 м 8/5 600 м
[Sc Ac trans]
+29.4 +27.5 90 +48 +52 опасность
перегрева
998.0 998.0 +24.6 14
06 13.08 СВ 1 4000 м 9/6 540 м
[Sc diur, vesp Ac trans]
+32.0 +27.3 76 +50 +56 опасность
перегрева
997.5 998.0
09 13.08 Ю 1 4000 м 9/6 540 м
[Sc diur, vesp Ac trans]
+32.6 +27.0 72 +50 +54 опасность
перегрева
995.3 995.0
12 13.08 штиль 0 4000 м слабый дождь 10/8 540 м
[Sc diur, vesp Ac As]
+30.0 +27.8 88 +49 +49 опасность
перегрева
994.9 995.0 +33.5 0.8
15 13.08 штиль 0 4000 м {дождь} 10/8 540 м
[Sc diur, vesp Ac As]
+28.4 +26.4 89 +43 +43 опасность
перегрева
997.5 998.0 3
18 13.08 штиль 0 4000 м в посл. час дождь 9/5 540 м
[Sc diur, vesp Ac trans]
+28.6 +27.2 92 +45 +45 опасность
перегрева
997.2 997.0 3
21 13.08 штиль 0 4000 м 8/5 600 м
[Sc diur, vesp Ac trans]
+28.4 +27.0 92 +45 +45 опасность
перегрева
996.0 996.0 3
00 14.08 С 1 4000 м {дождь} 9/6 600 м
[Sc diur, vesp Ac trans]
+28.2 +26.8 92 +44 +44 опасность
перегрева
995.3 995.0 3
03 14.08 С 2 4000 м в посл. час дождь 9/8 420 м
[Cu Sc Ac trans]
+29.6 +27.1 86 +47 +48 опасность
перегрева
996.8 997.0 +25.1 3
06 14.08 СВ 2 4000 м {дождь} 8/6 540 м
[Sc diur, vesp Ac trans]
+32.2 +27.0 74 +50 +57 опасность
перегрева
996.1 996.0
09 14.08 штиль 0 2000 м в посл. час дождь 8/5 540 м
[Sc Ac trans]
+27.6 +26.8 95 +43 +48 опасность
перегрева
994.0 994.0 22
12 14.08 штиль 0 2000 м слабый дождь {гроза} 10/8 540 м
[Sc As op]
+27.0 +26.4 97 +41 +41 опасность
перегрева
993.6 994.0 +33.0 25
15 14.08 штиль 0 4000 м в посл. час дождь 8/6 540 м
[Sc Ac lent]
+26.6 +25.7 95 +39 +39 очень
душно
995.6 996.0 28
18 14.08 штиль 0 4000 м {дождь} 9/8 540 м
[Sc diur, vesp Ac trans]
+28.6 +26.9 91 +45 +45 опасность
перегрева
996.8 997.0 28
21 14.08 штиль 0 2000 м слабый дождь 9/8 540 м
[Sc diur, vesp Ac trans]
+28.2 +26.5 91 +44 +44 опасность
перегрева
995.7 996.0 29
00 15.08 С 2 4000 м {дождь} 9/6 540 м
[Sc diur, vesp Ac trans]
+27.8 +26.4 92 +42 +42 опасность
перегрева
995.5 996.0 29
03 15.08 С 1 2000 м слабый дождь 10/8 540 м
[Sc As op]
+28.0 +27.2 95 +44 +45 опасность
перегрева
996.3 996.0 +24.6 31
06 15.08 ЮЗ 2 4000 м {дождь} 9/6 540 м
[Sc Ac trans]
+31.0 +26.8 78 +48 +53 опасность
перегрева
997.2 997.0 0.8
09 15.08 СВ 1 4000 м {дождь} 8/5 540 м
[Sc diur, vesp Ac trans]
+31.2 +27.6 81 +50 +55 опасность
перегрева
995.7 996.0 0.9
12 15.08 С 2 4000 м {дождь} 9/6 540 м
[Sc diur, vesp Ac trans]
+30.0 +26.9 84 +47 +47 опасность
перегрева
995.6 996.0 +31.4 0.9
15 15.08 СВ 1 4000 м в посл. час дождь 8/5 600 м
[Sc diur, vesp Ac trans]
+28.8 +26.9 89 +45 +45 опасность
перегрева
997.5 998.0 1
18 15.08 В 2 4000 м {дождь} 9/8 420 м
[Frnb Ac trans]
+28.8 +26.9 89 +45 +45 опасность
перегрева
998.8 999.0 3
21 15.08 ЮВ 1 4000 м 8/5 420 м
[St Ac trans]
+28.4 +26.2 88 +43 +43 опасность
перегрева
997.8 998.0 3
00 16.08 ЮВ 2 4000 м слабый дождь 9/8 420 м
[Cu Sc Ac trans]
+28.2 +26.2 89 +43 +43 опасность
перегрева
998.4 998.0 3
03 16.08 СВ 1 4000 м {дождь} 8/5 600 м
[Sc diur, vesp Ac trans]
+30.0 +26.9 84 +47 +51 опасность
перегрева
999.8 1000.0 +25.6 3
06 16.08 ЮВ 2 4000 м {дождь} 9/5 600 м
[Sc diur, vesp Ac trans]
+31.6 +27.5 79 +51 +57 опасность
перегрева
999.7 1000.0
09 16.08 С 1 4000 м 9/6 540 м
[Sc diur, vesp Ac trans]
+30.6 +27.0 81 +48 +51 опасность
перегрева
998.5 999.0
12 16.08 СВ 1 4000 м 9/6 540 м
[Sc diur, vesp Ac trans]
+30.0 +26.9 84 +47 +47 опасность
перегрева
997.7 998.0 +32.4
15 16.08 штиль 0 4000 м {дождь} 9/6 540 м
[Sc diur, vesp Ac trans]
+28.6 +26.6 89 +44 +44 опасность
перегрева
999.7 1000.0 6
18 16.08 штиль 0 4000 м {дождь} 6/4 540 м
[Sc Ac trans]
+28.0 +26.6 92 +43 +43 опасность
перегрева
1000.0 1000.0 6
21 16.08 штиль 0 4000 м 6/4 540 м
[Sc Ac trans]
+27.4 +26.3 94 +42 +42 опасность
перегрева
999.2 999.0 6
00 17.08 штиль 0 4000 м 6/4 540 м
[Sc Ac trans]
+27.4 +26.8 97 +43 +43 опасность
перегрева
998.8 999.0 6
03 17.08 СВ 1 4000 м 9/6 540 м
[Sc Ac trans]
+29.4 +26.9 86 +46 +49 опасность
перегрева
999.9 1000.0 +26.9 6
06 17.08 штиль 0 4000 м 9/6 540 м
[Sc diur, vesp Ac trans]
+31.2 +26.8 78 +49 +55 опасность
перегрева
999.6 1000.0
09 17.08 В 1 4000 м 9/6 540 м
[Sc diur, vesp Ac trans]
+31.8 +27.1 76 +50 +53 опасность
перегрева
997.1 997.0
12 17.08 В 1 4000 м 9/4 600 м
[Sc diur, vesp Ac trans Ci fib]
+30.2 +26.3 80 +46 +46 опасность
перегрева
996.0 996.0 +32.6
15 17.08 штиль 0 4000 м 6/4 600 м
[Sc diur, vesp Ac trans Ci fib]
+29.0 +26.2 85 +44 +44 опасность
перегрева
998.0 998.0
18 17.08 штиль 0 4000 м 5/3 600 м
[Sc Ac trans]
+28.6 +26.9 91 +45 +45 опасность
перегрева
996.5 997.0
21 17.08 штиль 0 4000 м 5/3 600 м
[Sc Ac trans]
+28.2 +26.5 91 +44 +44 опасность
перегрева
997.4 997.0
00 18.08 штиль 0 4000 м 8/5 600 м
[Sc diur, vesp Ac trans]
+28.0 +26.6 92 +43 +43 опасность
перегрева
997.2 997.0
03 18.08 С 1 4000 м 8/5 600 м
[Sc diur, vesp Ac trans Ci fib]
+31.0 +27.4 81 +49 +54 опасность
перегрева
998.8 999.0 +26.0
06 18.08 В 2 4000 м гроза, ливневой дождь 10/4 540 м
[Cb cap Ac As]
+31.4 +27.3 79 +50 +54 опасность
перегрева
998.2 998.0 0.0
09 18.08 штиль 0 4000 м в посл. час дождь 8/4 540 м
[Sc Ac trans]
+29.0 +28.5 97 +49 +55 опасность
перегрева
995.0 995.0 9
12 18.08 штиль 0 4000 м {гроза, дождь} 6/4 540 м
[Sc Ac trans]
+29.4 +27.5 90 +48 +48 опасность
перегрева
995.0 995.0 +33.5 9
15 18.08 штиль 0 4000 м 6/4 540 м
[Sc Ac trans]
+28.4 +27.0 92 +45 +45 опасность
перегрева
997.1 997.0 9
18 18.08 штиль 0 4000 м 8/5 600 м
[Sc Ac trans]
+29.0 +27.3 91 +47 +47 опасность
перегрева
998.2 998.0 9

 

Местоположение метеостанции Balasore (Orissa, Индия): широта 21.52 долгота 86.93 высота над уровнем моря 20 м.

В архиве по умолчанию представлена погода в Balasore за последнюю неделю. Архивные данные за месяц целиком и за предыдущие месяцы, начиная с января 2011 года, Вы можете получить, выбрав интересующий диапазон дат из раскрывающегося списка и нажав кнопку "Ввод!".


*Определитесь, кто Вы:
робот инопланетянин человек

Внимание! Время в таблицах - всемирное. Для получения местного времени необходимо прибавить поправку, которая в Balasore равна 5.5 ч.

Смотрите также архив погоды в соседних городах и на ближайших метеорологических станциях:

Погода в Baripada (Orissa, Индия) (49 км)
Погода в Digha (West Bengal, Индия) (60 км)
Погода в Chandbali (Orissa, Индия) (85 км)
Погода в Contai (West Bengal, Индия) (90 км)
Погода в Midnapore (West Bengal, Индия) (108 км)
Погода в Haldia (West Bengal, Индия) (128 км)
Погода в Paradip Port (Orissa, Индия) (138 км)
Погода в Keongjhargarh (Orissa, Индия) (146 км)
Погода в Diamond Harbour (West Bengal, Индия) (150 км)
Погода в Uluberia (West Bengal, Индия) (151 км)

Пояснения к столбцам:

Ветер - указаны скорость ветра в м/с - средняя за 10 мин, порывы в срок и между сроками (в фигурных скобках) и направление, откуда дует ветер: С - северный, СВ - северо-восточный, В - восточный, ЮВ - юго-восточный, Ю - южный, ЮЗ - юго-западный, З - западный, СЗ - северо-западный.
Видимость - горизонтальная дальность видимости в метрах или километрах. При видимости от 1 до 10 км при отсутствии осадков обычно наблюдается дымка, при ухудшении видимости до 1 км и менее - туман. В сухую погоду видимость может ухудшаться дымом, пылью или мглою.
Явления - указаны атмосферные явления, наблюдавшиеся в срок или в последний час перед сроком; фигурными скобками обозначены явления, наблюдавшиеся между сроками (за 1-3 часа до срока); квадратными скобками обозначены град или гололедные отложения с указанием их диаметра в мм.
Облачность - указаны через наклонную черту общая и нижняя облачность в баллах и высота нижней границы облаков в метрах; квадратными скобками обозначены формы облаков: Ci - перистые, Cs - перисто-слоистые, Cc - перисто-кучевые, Ac - высококучевые, As - высокослоистые, Sc - слоисто-кучевые, Ns - слоисто-дождевые, Cu - кучевые, Cb - кучево-дождевые. Подробнее классификацию облаков см. в Атласе облаков (PDF).
T - Температура воздуха - температура, измеренная на высоте 2 м над землей.
Td - Температура точки росы - температура, при понижении до которой содержащийся в воздухе водяной пар достигнет насыщения.
f - Относительная влажность воздуха - влажноcть воздуха, измеренная на высоте 2 м над землей.
Te - Эффективная температура - температура, которую ощущает одетый по сезону человек в тени. Характеристика душности погоды. При расчете учитывается влияние влажности воздуха и скорости ветра на теплоощущения человека.
Tes - Эффективная температура на солнце - температура, которую ощущает человек, с поправкой на солнечный нагрев. Характеристика знойности погоды. Зависит от высоты солнца над горизонтом, облачности и скорости ветра. Ночью, в пасмурную погоду, а также при ветре 12 м/с и более поправка равна нулю.
P - Атмосферное давление - приведенное к уровню моря атмосферное давление.
Po - Атмосферное давление - измеренное на уровне метеостанции атмосферное давление.
Tmin - Минимальная температура - минимум температуры воздуха на высоте 2 м над землей.
Tmax - Максимальная температура - максимум температуры воздуха на высоте 2 м над землей.
R - Количество осадков - Количество выпавших осадков за период времени, мм. При наведении курсора мыши на число - период времени, за который выпало указанное количество осадков.
R24 - Количество осадков - Количество выпавших осадков за 24 часа, мм.
S - Снежный покров - Высота снежного покрова, см. При наведении курсора мыши на число - состояние снежного покрова и степень покрытия местности в баллах.